Year,Month,Day,Hour,Minute,Value (Times are PST for windgust in km/hr)
2009,05,05,00,00,8.10
2009,05,05,00,01,8.10
2009,05,05,00,02,4.80
2009,05,05,00,03,9.60
2009,05,05,00,04,24.20
2009,05,05,00,05,16.10
2009,05,05,00,06,9.60
2009,05,05,00,07,9.60
2009,05,05,00,08,8.10
2009,05,05,00,09,9.60
2009,05,05,00,10,6.40
2009,05,05,00,11,14.50
2009,05,05,00,12,9.60
2009,05,05,00,13,9.60
2009,05,05,00,14,11.30
2009,05,05,00,15,16.10
2009,05,05,00,16,4.80
2009,05,05,00,17,8.10
2009,05,05,00,18,4.80
2009,05,05,00,19,8.10
2009,05,05,00,20,6.40
2009,05,05,00,21,1.60
2009,05,05,00,22,14.50
2009,05,05,00,23,22.50
2009,05,05,00,24,6.40
2009,05,05,00,25,9.60
2009,05,05,00,26,17.70
2009,05,05,00,27,9.60
2009,05,05,00,28,3.20
2009,05,05,00,29,3.20
2009,05,05,00,30,3.20
2009,05,05,00,31,17.70
2009,05,05,00,32,6.40
2009,05,05,00,33,14.50
2009,05,05,00,34,9.60
2009,05,05,00,35,9.60
2009,05,05,00,36,4.80
2009,05,05,00,37,3.20
2009,05,05,00,38,3.20
2009,05,05,00,39,3.20
2009,05,05,00,40,3.20
2009,05,05,00,41,4.80
2009,05,05,00,42,11.30
2009,05,05,00,43,9.60
2009,05,05,00,44,11.30
2009,05,05,00,45,11.30
2009,05,05,00,46,6.40
2009,05,05,00,47,4.80
2009,05,05,00,48,9.60
2009,05,05,00,49,12.90
2009,05,05,00,50,9.60
2009,05,05,00,51,9.60
2009,05,05,00,52,9.60
2009,05,05,00,53,9.60
2009,05,05,00,54,8.10
2009,05,05,00,55,9.60
2009,05,05,00,56,20.90
2009,05,05,00,57,19.30
2009,05,05,00,58,17.70
2009,05,05,00,59,4.80
2009,05,05,01,00,8.10
2009,05,05,01,01,8.10
2009,05,05,01,02,8.10
2009,05,05,01,03,9.60
2009,05,05,01,04,4.80
2009,05,05,01,05,8.10
2009,05,05,01,06,11.30
2009,05,05,01,07,11.30
2009,05,05,01,08,3.20
2009,05,05,01,09,4.80
2009,05,05,01,10,14.50
2009,05,05,01,11,4.80
2009,05,05,01,12,4.80
2009,05,05,01,13,3.20
2009,05,05,01,14,4.80
2009,05,05,01,15,3.20
2009,05,05,01,16,3.20
2009,05,05,01,17,3.20
2009,05,05,01,18,3.20
2009,05,05,01,19,8.10
2009,05,05,01,20,9.60
2009,05,05,01,21,6.40
2009,05,05,01,22,8.10
2009,05,05,01,23,6.40
2009,05,05,01,24,4.80
2009,05,05,01,25,4.80
2009,05,05,01,26,4.80
2009,05,05,01,27,1.60
2009,05,05,01,28,3.20
2009,05,05,01,29,4.80
2009,05,05,01,30,4.80
2009,05,05,01,31,8.10
2009,05,05,01,32,3.20
2009,05,05,01,33,4.80
2009,05,05,01,34,8.10
2009,05,05,01,35,6.40
2009,05,05,01,36,4.80
2009,05,05,01,37,4.80
2009,05,05,01,38,0.00
2009,05,05,01,39,0.00
2009,05,05,01,40,1.60
2009,05,05,01,41,1.60
2009,05,05,01,42,0.00
2009,05,05,01,43,0.00
2009,05,05,01,44,0.00
2009,05,05,01,45,1.60
2009,05,05,01,46,1.60
2009,05,05,01,47,3.20
2009,05,05,01,48,3.20
2009,05,05,01,49,4.80
2009,05,05,01,50,3.20
2009,05,05,01,51,1.60
2009,05,05,01,52,3.20
2009,05,05,01,53,3.20
2009,05,05,01,54,1.60
2009,05,05,01,55,3.20
2009,05,05,01,56,1.60
2009,05,05,01,57,1.60
2009,05,05,01,58,0.00
2009,05,05,01,59,0.00
2009,05,05,02,00,1.60
2009,05,05,02,01,1.60
2009,05,05,02,02,1.60
2009,05,05,02,03,0.00
2009,05,05,02,04,4.80
2009,05,05,02,05,4.80
2009,05,05,02,06,0.00
2009,05,05,02,07,0.00
2009,05,05,02,08,1.60
2009,05,05,02,09,1.60
2009,05,05,02,10,1.60
2009,05,05,02,11,1.60
2009,05,05,02,12,3.20
2009,05,05,02,13,3.20
2009,05,05,02,14,1.60
2009,05,05,02,15,3.20
2009,05,05,02,16,3.20
2009,05,05,02,17,3.20
2009,05,05,02,18,4.80
2009,05,05,02,19,4.80
2009,05,05,02,20,4.80
2009,05,05,02,21,4.80
2009,05,05,02,22,0.00
2009,05,05,02,23,1.60
2009,05,05,02,24,4.80
2009,05,05,02,25,8.10
2009,05,05,02,26,6.40
2009,05,05,02,27,4.80
2009,05,05,02,28,3.20
2009,05,05,02,29,0.00
2009,05,05,02,30,1.60
2009,05,05,02,31,1.60
2009,05,05,02,32,3.20
2009,05,05,02,33,1.60
2009,05,05,02,34,1.60
2009,05,05,02,35,0.00
2009,05,05,02,36,1.60
2009,05,05,02,37,1.60
2009,05,05,02,38,1.60
2009,05,05,02,39,0.00
2009,05,05,02,40,0.00
2009,05,05,02,41,3.20
2009,05,05,02,42,3.20
2009,05,05,02,43,1.60
2009,05,05,02,44,1.60
2009,05,05,02,45,0.00
2009,05,05,02,46,0.00
2009,05,05,02,47,0.00
2009,05,05,02,48,0.00
2009,05,05,02,49,0.00
2009,05,05,02,50,4.80
2009,05,05,02,51,4.80
2009,05,05,02,52,3.20
2009,05,05,02,53,3.20
2009,05,05,02,54,1.60
2009,05,05,02,55,4.80
2009,05,05,02,56,3.20
2009,05,05,02,57,1.60
2009,05,05,02,58,1.60
2009,05,05,02,59,1.60
2009,05,05,03,00,1.60
2009,05,05,03,01,4.80
2009,05,05,03,02,1.60
2009,05,05,03,03,3.20
2009,05,05,03,04,1.60
2009,05,05,03,05,1.60
2009,05,05,03,06,1.60
2009,05,05,03,07,1.60
2009,05,05,03,08,4.80
2009,05,05,03,09,3.20
2009,05,05,03,10,4.80
2009,05,05,03,11,1.60
2009,05,05,03,12,4.80
2009,05,05,03,13,3.20
2009,05,05,03,14,1.60
2009,05,05,03,15,3.20
2009,05,05,03,16,8.10
2009,05,05,03,17,8.10
2009,05,05,03,18,6.40
2009,05,05,03,19,3.20
2009,05,05,03,20,3.20
2009,05,05,03,21,1.60
2009,05,05,03,22,4.80
2009,05,05,03,23,8.10
2009,05,05,03,24,8.10
2009,05,05,03,25,11.30
2009,05,05,03,26,17.70
2009,05,05,03,27,8.10
2009,05,05,03,28,11.30
2009,05,05,03,29,11.30
2009,05,05,03,30,16.10
2009,05,05,03,31,16.10
2009,05,05,03,32,9.60
2009,05,05,03,33,16.10
2009,05,05,03,34,19.30
2009,05,05,03,35,11.30
2009,05,05,03,36,8.10
2009,05,05,03,37,8.10
2009,05,05,03,38,11.30
2009,05,05,03,39,16.10
2009,05,05,03,40,9.60
2009,05,05,03,41,9.60
2009,05,05,03,42,4.80
2009,05,05,03,43,8.10
2009,05,05,03,44,4.80
2009,05,05,03,45,8.10
2009,05,05,03,46,1.60
2009,05,05,03,47,4.80
2009,05,05,03,48,6.40
2009,05,05,03,49,14.50
2009,05,05,03,50,11.30
2009,05,05,03,51,8.10
2009,05,05,03,52,6.40
2009,05,05,03,53,8.10
2009,05,05,03,54,4.80
2009,05,05,03,55,9.60
2009,05,05,03,56,11.30
2009,05,05,03,57,8.10
2009,05,05,03,58,8.10
2009,05,05,03,59,9.60
2009,05,05,04,00,11.30
2009,05,05,04,01,11.30
2009,05,05,04,02,11.30
2009,05,05,04,03,8.10
2009,05,05,04,04,8.10
2009,05,05,04,05,4.80
2009,05,05,04,06,6.40
2009,05,05,04,07,8.10
2009,05,05,04,08,6.40
2009,05,05,04,09,6.40
2009,05,05,04,10,11.30
2009,05,05,04,11,9.60
2009,05,05,04,12,6.40
2009,05,05,04,13,9.60
2009,05,05,04,14,8.10
2009,05,05,04,15,6.40
2009,05,05,04,16,8.10
2009,05,05,04,17,9.60
2009,05,05,04,18,12.90
2009,05,05,04,19,9.60
2009,05,05,04,20,9.60
2009,05,05,04,21,20.90
2009,05,05,04,22,19.30
2009,05,05,04,23,16.10
2009,05,05,04,24,4.80
2009,05,05,04,25,9.60
2009,05,05,04,26,24.20
2009,05,05,04,27,24.20
2009,05,05,04,28,19.30
2009,05,05,04,29,20.90
2009,05,05,04,30,3.20
2009,05,05,04,31,6.40
2009,05,05,04,32,9.60
2009,05,05,04,33,14.50
2009,05,05,04,34,17.70
2009,05,05,04,35,25.70
2009,05,05,04,36,16.10
2009,05,05,04,37,11.30
2009,05,05,04,38,14.50
2009,05,05,04,39,14.50
2009,05,05,04,40,8.10
2009,05,05,04,41,19.30
2009,05,05,04,42,22.50
2009,05,05,04,43,11.30
2009,05,05,04,44,20.90
2009,05,05,04,45,12.90
2009,05,05,04,46,14.50
2009,05,05,04,47,6.40
2009,05,05,04,48,9.60
2009,05,05,04,49,11.30
2009,05,05,04,50,19.30
2009,05,05,04,51,19.30
2009,05,05,04,52,16.10
2009,05,05,04,53,8.10
2009,05,05,04,54,8.10
2009,05,05,04,55,14.50
2009,05,05,04,56,29.00
2009,05,05,04,57,17.70
2009,05,05,04,58,16.10
2009,05,05,04,59,16.10
2009,05,05,05,00,9.60
2009,05,05,05,01,3.20
2009,05,05,05,02,9.60
2009,05,05,05,03,11.30
2009,05,05,05,04,8.10
2009,05,05,05,05,14.50
2009,05,05,05,06,6.40
2009,05,05,05,07,9.60
2009,05,05,05,08,4.80
2009,05,05,05,09,17.70
2009,05,05,05,10,11.30
2009,05,05,05,11,11.30
2009,05,05,05,12,6.40
2009,05,05,05,13,19.30
2009,05,05,05,14,8.10
2009,05,05,05,15,6.40
2009,05,05,05,16,6.40
2009,05,05,05,17,6.40
2009,05,05,05,18,12.90
2009,05,05,05,19,17.70
2009,05,05,05,20,9.60
2009,05,05,05,21,8.10
2009,05,05,05,22,20.90
2009,05,05,05,23,9.60
2009,05,05,05,24,24.20
2009,05,05,05,25,14.50
2009,05,05,05,26,6.40
2009,05,05,05,27,9.60
2009,05,05,05,28,9.60
2009,05,05,05,29,8.10
2009,05,05,05,30,4.80
2009,05,05,05,31,8.10
2009,05,05,05,32,9.60
2009,05,05,05,33,11.30
2009,05,05,05,34,8.10
2009,05,05,05,35,14.50
2009,05,05,05,36,14.50
2009,05,05,05,37,8.10
2009,05,05,05,38,19.30
2009,05,05,05,39,20.90
2009,05,05,05,40,24.20
2009,05,05,05,41,27.40
2009,05,05,05,42,24.20
2009,05,05,05,43,17.70
2009,05,05,05,44,22.50
2009,05,05,05,45,24.20
2009,05,05,05,46,19.30
2009,05,05,05,47,16.10
2009,05,05,05,48,19.30
2009,05,05,05,49,16.10
2009,05,05,05,50,19.30
2009,05,05,05,51,8.10
2009,05,05,05,52,27.40
2009,05,05,05,53,14.50
2009,05,05,05,54,11.30
2009,05,05,05,55,16.10
2009,05,05,05,56,20.90
2009,05,05,05,57,16.10
2009,05,05,05,58,11.30
2009,05,05,05,59,16.10
2009,05,05,06,00,9.60
2009,05,05,06,01,16.10
2009,05,05,06,02,22.50
2009,05,05,06,03,17.70
2009,05,05,06,04,16.10
2009,05,05,06,05,45.10
2009,05,05,06,06,17.70
2009,05,05,06,07,12.90
2009,05,05,06,08,19.30
2009,05,05,06,09,9.60
2009,05,05,06,10,17.70
2009,05,05,06,11,19.30
2009,05,05,06,12,20.90
2009,05,05,06,13,9.60
2009,05,05,06,14,8.10
2009,05,05,06,15,19.30
2009,05,05,06,16,6.40
2009,05,05,06,17,19.30
2009,05,05,06,18,22.50
2009,05,05,06,19,32.20
2009,05,05,06,20,22.50
2009,05,05,06,21,16.10
2009,05,05,06,22,9.60
2009,05,05,06,23,9.60
2009,05,05,06,24,17.70
2009,05,05,06,25,17.70
2009,05,05,06,26,17.70
2009,05,05,06,27,4.80
2009,05,05,06,28,20.90
2009,05,05,06,29,11.30
2009,05,05,06,30,22.50
2009,05,05,06,31,16.10
2009,05,05,06,32,24.20
2009,05,05,06,33,14.50
2009,05,05,06,34,9.60
2009,05,05,06,35,25.70
2009,05,05,06,36,11.30
2009,05,05,06,37,11.30
2009,05,05,06,38,22.50
2009,05,05,06,39,9.60
2009,05,05,06,40,8.10
2009,05,05,06,41,8.10
2009,05,05,06,42,27.40
2009,05,05,06,43,16.10
2009,05,05,06,44,16.10
2009,05,05,06,45,8.10
2009,05,05,06,46,3.20
2009,05,05,06,47,6.40
2009,05,05,06,48,6.40
2009,05,05,06,49,4.80
2009,05,05,06,50,6.40
2009,05,05,06,51,1.60
2009,05,05,06,52,9.60
2009,05,05,06,53,4.80
2009,05,05,06,54,3.20
2009,05,05,06,55,3.20
2009,05,05,06,56,3.20
2009,05,05,06,57,8.10
2009,05,05,06,58,22.50
2009,05,05,06,59,6.40
2009,05,05,07,00,4.80
2009,05,05,07,01,6.40
2009,05,05,07,02,8.10
2009,05,05,07,03,4.80
2009,05,05,07,04,11.30
2009,05,05,07,05,8.10
2009,05,05,07,06,17.70
2009,05,05,07,07,20.90
2009,05,05,07,08,30.60
2009,05,05,07,09,27.40
2009,05,05,07,10,16.10
2009,05,05,07,11,35.40
2009,05,05,07,12,29.00
2009,05,05,07,13,22.50
2009,05,05,07,14,9.60
2009,05,05,07,15,41.80
2009,05,05,07,16,17.70
2009,05,05,07,17,29.00
2009,05,05,07,18,20.90
2009,05,05,07,19,16.10
2009,05,05,07,20,25.70
2009,05,05,07,21,11.30
2009,05,05,07,22,19.30
2009,05,05,07,23,24.20
2009,05,05,07,24,29.00
2009,05,05,07,25,24.20
2009,05,05,07,26,22.50
2009,05,05,07,27,32.20
2009,05,05,07,28,25.70
2009,05,05,07,29,22.50
2009,05,05,07,30,19.30
2009,05,05,07,31,24.20
2009,05,05,07,32,24.20
2009,05,05,07,33,30.60
2009,05,05,07,34,25.70
2009,05,05,07,35,20.90
2009,05,05,07,36,32.20
2009,05,05,07,37,19.30
2009,05,05,07,38,19.30
2009,05,05,07,39,20.90
2009,05,05,07,40,17.70
2009,05,05,07,41,9.60
2009,05,05,07,42,9.60
2009,05,05,07,43,27.40
2009,05,05,07,44,24.20
2009,05,05,07,45,14.50
2009,05,05,07,46,22.50
2009,05,05,07,47,20.90
2009,05,05,07,48,20.90
2009,05,05,07,49,25.70
2009,05,05,07,50,19.30
2009,05,05,07,51,20.90
2009,05,05,07,52,24.20
2009,05,05,07,53,24.20
2009,05,05,07,54,19.30
2009,05,05,07,55,16.10
2009,05,05,07,56,22.50
2009,05,05,07,57,24.20
2009,05,05,07,58,20.90
2009,05,05,07,59,22.50
2009,05,05,08,00,17.70
2009,05,05,08,01,25.70
2009,05,05,08,02,29.00
2009,05,05,08,03,32.20
2009,05,05,08,04,24.20
2009,05,05,08,05,30.60
2009,05,05,08,06,25.70
2009,05,05,08,07,33.80
2009,05,05,08,08,29.00
2009,05,05,08,09,24.20
2009,05,05,08,10,11.30
2009,05,05,08,11,38.60
2009,05,05,08,12,16.10
2009,05,05,08,13,22.50
2009,05,05,08,14,22.50
2009,05,05,08,15,16.10
2009,05,05,08,16,27.40
2009,05,05,08,17,40.20
2009,05,05,08,18,24.20
2009,05,05,08,19,27.40
2009,05,05,08,20,24.20
2009,05,05,08,21,24.20
2009,05,05,08,22,22.50
2009,05,05,08,23,37.00
2009,05,05,08,24,14.50
2009,05,05,08,25,29.00
2009,05,05,08,26,16.10
2009,05,05,08,27,19.30
2009,05,05,08,28,33.80
2009,05,05,08,29,22.50
2009,05,05,08,30,24.20
2009,05,05,08,31,25.70
2009,05,05,08,32,27.40
2009,05,05,08,33,29.00
2009,05,05,08,34,8.10
2009,05,05,08,35,22.50
2009,05,05,08,36,20.90
2009,05,05,08,37,12.90
2009,05,05,08,38,16.10
2009,05,05,08,39,29.00
2009,05,05,08,40,20.90
2009,05,05,08,41,16.10
2009,05,05,08,42,27.40
2009,05,05,08,43,29.00
2009,05,05,08,44,29.00
2009,05,05,08,45,22.50
2009,05,05,08,46,29.00
2009,05,05,08,47,22.50
2009,05,05,08,48,29.00
2009,05,05,08,49,33.80
2009,05,05,08,50,32.20
2009,05,05,08,51,25.70
2009,05,05,08,52,24.20
2009,05,05,08,53,29.00
2009,05,05,08,54,25.70
2009,05,05,08,55,25.70
2009,05,05,08,56,33.80
2009,05,05,08,57,20.90
2009,05,05,08,58,29.00
2009,05,05,08,59,29.00
2009,05,05,09,00,32.20
2009,05,05,09,01,22.50
2009,05,05,09,02,19.30
2009,05,05,09,03,27.40
2009,05,05,09,04,14.50
2009,05,05,09,05,20.90
2009,05,05,09,06,25.70
2009,05,05,09,07,25.70
2009,05,05,09,08,20.90
2009,05,05,09,09,27.40
2009,05,05,09,10,30.60
2009,05,05,09,11,19.30
2009,05,05,09,12,12.90
2009,05,05,09,13,25.70
2009,05,05,09,14,6.40
2009,05,05,09,15,8.10
2009,05,05,09,16,22.50
2009,05,05,09,17,17.70
2009,05,05,09,18,14.50
2009,05,05,09,19,20.90
2009,05,05,09,20,20.90
2009,05,05,09,21,20.90
2009,05,05,09,22,9.60
2009,05,05,09,23,19.30
2009,05,05,09,24,16.10
2009,05,05,09,25,19.30
2009,05,05,09,26,16.10
2009,05,05,09,27,16.10
2009,05,05,09,28,25.70
2009,05,05,09,29,24.20
2009,05,05,09,30,30.60
2009,05,05,09,31,24.20
2009,05,05,09,32,22.50
2009,05,05,09,33,27.40
2009,05,05,09,34,19.30
2009,05,05,09,35,19.30
2009,05,05,09,36,24.20
2009,05,05,09,37,29.00
2009,05,05,09,38,24.20
2009,05,05,09,39,27.40
2009,05,05,09,40,17.70
2009,05,05,09,41,17.70
2009,05,05,09,42,17.70
2009,05,05,09,43,16.10
2009,05,05,09,44,30.60
2009,05,05,09,45,33.80
2009,05,05,09,46,17.70
2009,05,05,09,47,19.30
2009,05,05,09,48,6.40
2009,05,05,09,49,19.30
2009,05,05,09,50,25.70
2009,05,05,09,51,25.70
2009,05,05,09,52,17.70
2009,05,05,09,53,17.70
2009,05,05,09,54,11.30
2009,05,05,09,55,9.60
2009,05,05,09,56,25.70
2009,05,05,09,57,19.30
2009,05,05,09,58,16.10
2009,05,05,09,59,11.30
2009,05,05,10,00,9.60
2009,05,05,10,01,14.50
2009,05,05,10,02,16.10
2009,05,05,10,03,16.10
2009,05,05,10,04,17.70
2009,05,05,10,05,17.70
2009,05,05,10,06,11.30
2009,05,05,10,07,8.10
2009,05,05,10,08,8.10
2009,05,05,10,09,14.50
2009,05,05,10,10,19.30
2009,05,05,10,11,8.10
2009,05,05,10,12,6.40
2009,05,05,10,13,6.40
2009,05,05,10,14,9.60
2009,05,05,10,15,19.30
2009,05,05,10,16,22.50
2009,05,05,10,17,17.70
2009,05,05,10,18,12.90
2009,05,05,10,19,11.30
2009,05,05,10,20,9.60
2009,05,05,10,21,14.50
2009,05,05,10,22,16.10
2009,05,05,10,23,11.30
2009,05,05,10,24,11.30
2009,05,05,10,25,11.30
2009,05,05,10,26,17.70
2009,05,05,10,27,11.30
2009,05,05,10,28,16.10
2009,05,05,10,29,8.10
2009,05,05,10,30,9.60
2009,05,05,10,31,16.10
2009,05,05,10,32,9.60
2009,05,05,10,33,16.10
2009,05,05,10,34,17.70
2009,05,05,10,35,17.70
2009,05,05,10,36,22.50
2009,05,05,10,37,8.10
2009,05,05,10,38,14.50
2009,05,05,10,39,6.40
2009,05,05,10,40,6.40
2009,05,05,10,41,17.70
2009,05,05,10,42,17.70
2009,05,05,10,43,6.40
2009,05,05,10,44,6.40
2009,05,05,10,45,6.40
2009,05,05,10,46,6.40
2009,05,05,10,47,24.20
2009,05,05,10,48,8.10
2009,05,05,10,49,16.10
2009,05,05,10,50,19.30
2009,05,05,10,51,9.60
2009,05,05,10,52,17.70
2009,05,05,10,53,8.10
2009,05,05,10,54,4.80
2009,05,05,10,55,6.40
2009,05,05,10,56,3.20
2009,05,05,10,57,8.10
2009,05,05,10,58,6.40
2009,05,05,10,59,9.60
2009,05,05,11,00,14.50
2009,05,05,11,01,9.60
2009,05,05,11,02,9.60
2009,05,05,11,03,14.50
2009,05,05,11,04,11.30
2009,05,05,11,05,4.80
2009,05,05,11,06,8.10
2009,05,05,11,07,17.70
2009,05,05,11,08,8.10
2009,05,05,11,09,8.10
2009,05,05,11,10,14.50
2009,05,05,11,11,16.10
2009,05,05,11,12,11.30
2009,05,05,11,13,11.30
2009,05,05,11,14,11.30
2009,05,05,11,15,11.30
2009,05,05,11,16,16.10
2009,05,05,11,17,8.10
2009,05,05,11,18,8.10
2009,05,05,11,19,9.60
2009,05,05,11,20,8.10
2009,05,05,11,21,8.10
2009,05,05,11,22,12.90
2009,05,05,11,23,9.60
2009,05,05,11,24,14.50
2009,05,05,11,25,4.80
2009,05,05,11,26,4.80
2009,05,05,11,27,9.60
2009,05,05,11,28,11.30
2009,05,05,11,29,11.30
2009,05,05,11,30,11.30
2009,05,05,11,31,8.10
2009,05,05,11,32,4.80
2009,05,05,11,33,14.50
2009,05,05,11,34,11.30
2009,05,05,11,35,11.30
2009,05,05,11,36,9.60
2009,05,05,11,37,9.60
2009,05,05,11,38,8.10
2009,05,05,11,39,17.70
2009,05,05,11,40,8.10
2009,05,05,11,41,9.60
2009,05,05,11,42,9.60
2009,05,05,11,43,9.60
2009,05,05,11,44,14.50
2009,05,05,11,45,6.40
2009,05,05,11,46,8.10
2009,05,05,11,47,14.50
2009,05,05,11,48,11.30
2009,05,05,11,49,14.50
2009,05,05,11,50,12.90
2009,05,05,11,51,6.40
2009,05,05,11,52,8.10
2009,05,05,11,53,14.50
2009,05,05,11,54,16.10
2009,05,05,11,55,8.10
2009,05,05,11,56,9.60
2009,05,05,11,57,8.10
2009,05,05,11,58,14.50
2009,05,05,11,59,24.20
2009,05,05,12,00,4.80
2009,05,05,12,01,9.60
2009,05,05,12,02,14.50
2009,05,05,12,03,9.60
2009,05,05,12,04,9.60
2009,05,05,12,05,16.10
2009,05,05,12,06,11.30
2009,05,05,12,07,4.80
2009,05,05,12,08,9.60
2009,05,05,12,09,9.60
2009,05,05,12,10,8.10
2009,05,05,12,11,14.50
2009,05,05,12,12,16.10
2009,05,05,12,13,4.80
2009,05,05,12,14,11.30
2009,05,05,12,15,4.80
2009,05,05,12,16,9.60
2009,05,05,12,17,4.80
2009,05,05,12,18,4.80
2009,05,05,12,19,6.40
2009,05,05,12,20,8.10
2009,05,05,12,21,8.10
2009,05,05,12,22,16.10
2009,05,05,12,23,9.60
2009,05,05,12,24,4.80
2009,05,05,12,25,8.10
2009,05,05,12,26,6.40
2009,05,05,12,27,11.30
2009,05,05,12,28,9.60
2009,05,05,12,29,8.10
2009,05,05,12,30,6.40
2009,05,05,12,31,4.80
2009,05,05,12,32,11.30
2009,05,05,12,33,17.70
2009,05,05,12,34,11.30
2009,05,05,12,35,9.60
2009,05,05,12,36,8.10
2009,05,05,12,37,8.10
2009,05,05,12,38,8.10
2009,05,05,12,39,14.50
2009,05,05,12,40,9.60
2009,05,05,12,41,6.40
2009,05,05,12,42,6.40
2009,05,05,12,43,6.40
2009,05,05,12,44,1.60
2009,05,05,12,45,6.40
2009,05,05,12,46,6.40
2009,05,05,12,47,4.80
2009,05,05,12,48,4.80
2009,05,05,12,49,3.20
2009,05,05,12,50,6.40
2009,05,05,12,51,6.40
2009,05,05,12,52,4.80
2009,05,05,12,53,4.80
2009,05,05,12,54,4.80
2009,05,05,12,55,3.20
2009,05,05,12,56,6.40
2009,05,05,12,57,8.10
2009,05,05,12,58,6.40
2009,05,05,12,59,12.90
2009,05,05,13,00,6.40
2009,05,05,13,01,4.80
2009,05,05,13,02,3.20
2009,05,05,13,03,9.60
2009,05,05,13,04,3.20
2009,05,05,13,05,3.20
2009,05,05,13,06,3.20
2009,05,05,13,07,1.60
2009,05,05,13,08,3.20
2009,05,05,13,09,4.80
2009,05,05,13,10,1.60
2009,05,05,13,11,3.20
2009,05,05,13,12,1.60
2009,05,05,13,13,3.20
2009,05,05,13,14,3.20
2009,05,05,13,15,1.60
2009,05,05,13,16,1.60
2009,05,05,13,17,3.20
2009,05,05,13,18,3.20
2009,05,05,13,19,1.60
2009,05,05,13,20,1.60
2009,05,05,13,21,3.20
2009,05,05,13,22,4.80
2009,05,05,13,23,3.20
2009,05,05,13,24,4.80
2009,05,05,13,25,1.60
2009,05,05,13,26,4.80
2009,05,05,13,27,1.60
2009,05,05,13,28,1.60
2009,05,05,13,29,3.20
2009,05,05,13,30,1.60
2009,05,05,13,31,1.60
2009,05,05,13,32,4.80
2009,05,05,13,33,4.80
2009,05,05,13,34,9.60
2009,05,05,13,35,3.20
2009,05,05,13,36,3.20
2009,05,05,13,37,4.80
2009,05,05,13,38,6.40
2009,05,05,13,39,4.80
2009,05,05,13,40,6.40
2009,05,05,13,41,9.60
2009,05,05,13,42,8.10
2009,05,05,13,43,4.80
2009,05,05,13,44,6.40
2009,05,05,13,45,9.60
2009,05,05,13,46,6.40
2009,05,05,13,47,4.80
2009,05,05,13,48,4.80
2009,05,05,13,49,4.80
2009,05,05,13,50,8.10
2009,05,05,13,51,9.60
2009,05,05,13,52,6.40
2009,05,05,13,53,6.40
2009,05,05,13,54,4.80
2009,05,05,13,55,9.60
2009,05,05,13,56,8.10
2009,05,05,13,57,4.80
2009,05,05,13,58,11.30
2009,05,05,13,59,9.60
2009,05,05,14,00,11.30
2009,05,05,14,01,6.40
2009,05,05,14,02,4.80
2009,05,05,14,03,6.40
2009,05,05,14,04,6.40
2009,05,05,14,05,8.10
2009,05,05,14,06,1.60
2009,05,05,14,07,9.60
2009,05,05,14,08,8.10
2009,05,05,14,09,4.80
2009,05,05,14,10,4.80
2009,05,05,14,11,14.50
2009,05,05,14,12,8.10
2009,05,05,14,13,8.10
2009,05,05,14,14,12.90
2009,05,05,14,15,9.60
2009,05,05,14,16,6.40
2009,05,05,14,17,9.60
2009,05,05,14,18,8.10
2009,05,05,14,19,12.90
2009,05,05,14,20,6.40
2009,05,05,14,21,8.10
2009,05,05,14,22,6.40
2009,05,05,14,23,6.40
2009,05,05,14,24,20.90
2009,05,05,14,25,9.60
2009,05,05,14,26,14.50
2009,05,05,14,27,6.40
2009,05,05,14,28,6.40
2009,05,05,14,29,11.30
2009,05,05,14,30,16.10
2009,05,05,14,31,11.30
2009,05,05,14,32,20.90
2009,05,05,14,33,8.10
2009,05,05,14,34,11.30
2009,05,05,14,35,16.10
2009,05,05,14,36,8.10
2009,05,05,14,37,8.10
2009,05,05,14,38,6.40
2009,05,05,14,39,6.40
2009,05,05,14,40,14.50
2009,05,05,14,41,14.50
2009,05,05,14,42,12.90
2009,05,05,14,43,3.20
2009,05,05,14,44,3.20
2009,05,05,14,45,3.20
2009,05,05,14,46,9.60
2009,05,05,14,47,6.40
2009,05,05,14,48,11.30
2009,05,05,14,49,14.50
2009,05,05,14,50,14.50
2009,05,05,14,51,8.10
2009,05,05,14,52,8.10
2009,05,05,14,53,14.50
2009,05,05,14,54,4.80
2009,05,05,14,55,4.80
2009,05,05,14,56,8.10
2009,05,05,14,57,8.10
2009,05,05,14,58,11.30
2009,05,05,14,59,16.10
2009,05,05,15,00,11.30
2009,05,05,15,01,8.10
2009,05,05,15,02,1.60
2009,05,05,15,03,6.40
2009,05,05,15,04,12.90
2009,05,05,15,05,6.40
2009,05,05,15,06,8.10
2009,05,05,15,07,4.80
2009,05,05,15,08,8.10
2009,05,05,15,09,8.10
2009,05,05,15,10,4.80
2009,05,05,15,11,3.20
2009,05,05,15,12,3.20
2009,05,05,15,13,11.30
2009,05,05,15,14,9.60
2009,05,05,15,15,11.30
2009,05,05,15,16,17.70
2009,05,05,15,17,11.30
2009,05,05,15,18,8.10
2009,05,05,15,19,17.70
2009,05,05,15,20,12.90
2009,05,05,15,21,11.30
2009,05,05,15,22,6.40
2009,05,05,15,23,14.50
2009,05,05,15,24,12.90
2009,05,05,15,25,6.40
2009,05,05,15,26,17.70
2009,05,05,15,27,8.10
2009,05,05,15,28,14.50
2009,05,05,15,29,12.90
2009,05,05,15,30,9.60
2009,05,05,15,31,14.50
2009,05,05,15,32,6.40
2009,05,05,15,33,8.10
2009,05,05,15,34,19.30
2009,05,05,15,35,16.10
2009,05,05,15,36,17.70
2009,05,05,15,37,16.10
2009,05,05,15,38,17.70
2009,05,05,15,39,9.60
2009,05,05,15,40,16.10
2009,05,05,15,41,14.50
2009,05,05,15,42,14.50
2009,05,05,15,43,4.80
2009,05,05,15,44,20.90
2009,05,05,15,45,12.90
2009,05,05,15,46,17.70
2009,05,05,15,47,25.70
2009,05,05,15,48,17.70
2009,05,05,15,49,16.10
2009,05,05,15,50,11.30
2009,05,05,15,51,16.10
2009,05,05,15,52,19.30
2009,05,05,15,53,17.70
2009,05,05,15,54,16.10
2009,05,05,15,55,16.10
2009,05,05,15,56,17.70
2009,05,05,15,57,14.50
2009,05,05,15,58,14.50
2009,05,05,15,59,14.50
2009,05,05,16,00,9.60
2009,05,05,16,01,9.60
2009,05,05,16,02,4.80
2009,05,05,16,03,17.70
2009,05,05,16,04,11.30
2009,05,05,16,05,11.30
2009,05,05,16,06,9.60
2009,05,05,16,07,17.70
2009,05,05,16,08,4.80
2009,05,05,16,09,19.30
2009,05,05,16,10,16.10
2009,05,05,16,11,6.40
2009,05,05,16,12,4.80
2009,05,05,16,13,6.40
2009,05,05,16,14,16.10
2009,05,05,16,15,14.50
2009,05,05,16,16,11.30
2009,05,05,16,17,8.10
2009,05,05,16,18,4.80
2009,05,05,16,19,4.80
2009,05,05,16,20,3.20
2009,05,05,16,21,3.20
2009,05,05,16,22,14.50
2009,05,05,16,23,14.50
2009,05,05,16,24,1.60
2009,05,05,16,25,4.80
2009,05,05,16,26,16.10
2009,05,05,16,27,8.10
2009,05,05,16,28,8.10
2009,05,05,16,29,4.80
2009,05,05,16,30,4.80
2009,05,05,16,31,6.40
2009,05,05,16,32,3.20
2009,05,05,16,33,4.80
2009,05,05,16,34,4.80
2009,05,05,16,35,11.30
2009,05,05,16,36,11.30
2009,05,05,16,37,3.20
2009,05,05,16,38,4.80
2009,05,05,16,39,4.80
2009,05,05,16,40,6.40
2009,05,05,16,41,6.40
2009,05,05,16,42,4.80
2009,05,05,16,43,6.40
2009,05,05,16,44,4.80
2009,05,05,16,45,6.40
2009,05,05,16,46,9.60
2009,05,05,16,47,9.60
2009,05,05,16,48,4.80
2009,05,05,16,49,4.80
2009,05,05,16,50,6.40
2009,05,05,16,51,11.30
2009,05,05,16,52,8.10
2009,05,05,16,53,3.20
2009,05,05,16,54,3.20
2009,05,05,16,55,12.90
2009,05,05,16,56,8.10
2009,05,05,16,57,6.40
2009,05,05,16,58,8.10
2009,05,05,16,59,6.40
2009,05,05,17,00,1.60
2009,05,05,17,01,9.60
2009,05,05,17,02,14.50
2009,05,05,17,03,8.10
2009,05,05,17,04,3.20
2009,05,05,17,05,6.40
2009,05,05,17,06,3.20
2009,05,05,17,07,3.20
2009,05,05,17,08,8.10
2009,05,05,17,09,3.20
2009,05,05,17,10,4.80
2009,05,05,17,11,1.60
2009,05,05,17,12,3.20
2009,05,05,17,13,3.20
2009,05,05,17,14,1.60
2009,05,05,17,15,3.20
2009,05,05,17,16,3.20
2009,05,05,17,17,3.20
2009,05,05,17,18,4.80
2009,05,05,17,19,14.50
2009,05,05,17,20,1.60
2009,05,05,17,21,16.10
2009,05,05,17,22,11.30
2009,05,05,17,23,17.70
2009,05,05,17,24,9.60
2009,05,05,17,25,6.40
2009,05,05,17,26,8.10
2009,05,05,17,27,6.40
2009,05,05,17,28,4.80
2009,05,05,17,29,6.40
2009,05,05,17,30,6.40
2009,05,05,17,31,9.60
2009,05,05,17,32,9.60
2009,05,05,17,33,17.70
2009,05,05,17,34,14.50
2009,05,05,17,35,11.30
2009,05,05,17,36,6.40
2009,05,05,17,37,8.10
2009,05,05,17,38,3.20
2009,05,05,17,39,6.40
2009,05,05,17,40,14.50
2009,05,05,17,41,8.10
2009,05,05,17,42,3.20
2009,05,05,17,43,4.80
2009,05,05,17,44,8.10
2009,05,05,17,45,3.20